Theta_e
331 332 332 331 332 332 332 330 329 329 329 328 328 328 327 326 325 324 324 323 323 323 323 323 323 322 323 324 323 324 324 323 321 321 320 318 318 318 318 318 318 317 316 315 313 312 311 311 310 308 304 298
329 330 330 330 330 330 329 329 328 328 328 327 327 326 325 323 322 322 322 322 322 322 322 322 322 322 323 323 323 322 322 320 319 318 317 316 316 316 316 316 315 315 314 313 311 310 310 309 309 307 304 297
323 326 328 329 329 328 327 327 327 327 326 325 324 323 320 320 321 321 321 321 320 320 320 320 320 320 321 322 321 320 319 319 318 317 315 315 314 313 313 314 314 313 311 310 309 309 308 306 305 304 300 297
316 322 323 325 326 326 326 326 326 326 325 322 321 320 319 316 312 314 315 317 314 317 318 318 317 319 319 320 319 319 318 317 316 316 315 314 312 310 310 310 311 310 309 308 308 307 306 304 302 296 295 295
313 317 321 321 322 323 325 325 324 324 320 317 316 313 311 308 302 303 306 306 306 311 308 314 315 317 318 318 317 317 316 315 315 314 313 312 310 309 307 305 305 306 307 307 306 305 302 300 294 295 295 295
311 313 317 312 314 315 319 319 318 313 308 310 305 309 304 299 300 298 299 302 308 305 307 309 313 314 315 316 315 315 315 313 313 312 311 310 309 307 305 301 293 294 300 303 303 301 299 293 293 294 294 294
308 309 308 307 308 310 313 312 308 305 304 299 299 298 297 298 297 297 299 300 302 303 308 307 310 311 312 313 312 313 313 312 311 310 309 308 306 304 301 292 291 291 291 292 297 296 293 291 292 293 293 293
306 305 305 305 305 306 306 304 303 301 298 297 296 296 296 295 296 297 298 308 308 307 302 306 309 308 307 306 305 304 302 306 306 307 306 304 302 299 295 291 291 291 290 291 291 291 290 290 291 291 292 291
304 303 303 302 301 301 300 300 299 298 297 297 296 295 295 295 296 296 298 296 295 293 293 292 292 292 291 292 293 297 290 291 294 292 290 291 294 290 292 290 290 291 290 290 290 290 290 290 290 290 291 290
304 302 301 300 299 298 298 298 297 296 296 296 296 295 295 296 295 295 294 292 292 291 291 290 290 290 290 290 291 293 289 289 290 289 289 290 291 290 290 290 290 291 291 289 289 289 289 289 289 289 289 289
301 300 300 299 298 297 296 296 296 296 295 295 295 295 296 295 293 293 291 291 291 290 290 290 289 289 289 289 289 291 289 289 289 289 289 289 289 289 289 289 289 289 289 288 288 288 288 289 289 289 289 288
299 299 297 297 299 297 297 296 296 295 295 295 295 295 295 295 293 292 291 291 291 290 290 290 289 289 288 288 289 290 289 289 288 288 288 288 287 288 288 289 288 288 288 288 287 288 288 288 288 288 288 288
298 297 296 296 296 296 299 296 296 296 295 294 295 295 295 294 292 291 291 291 291 289 290 289 289 288 288 289 289 289 288 289 288 288 288 288 287 287 288 288 288 288 287 287 288 288 287 287 287 287 288 288
296 296 295 295 296 295 298 295 295 295 294 294 294 294 294 294 293 292 291 291 290 290 289 288 288 288 288 288 288 288 289 288 287 287 287 287 287 288 287 288 290 287 287 287 287 287 287 287 287 287 287 287
296 296 295 295 295 295 296 295 295 295 294 293 294 294 294 293 293 292 291 291 290 289 289 288 288 287 287 287 287 288 288 288 288 287 287 288 287 287 287 287 287 287 286 286 286 287 287 287 287 287 287 287
294 295 294 294 294 294 295 295 294 294 294 294 293 293 293 292 292 293 290 290 290 289 289 288 287 287 287 287 287 288 288 288 288 288 288 287 287 287 287 287 287 287 285 285 286 286 286 286 286 286 286 286
294 294 294 293 294 294 296 294 294 294 293 293 292 293 293 292 292 293 291 290 290 291 288 288 287 286 288 287 288 288 287 288 287 288 287 288 288 286 286 286 286 287 285 285 285 285 286 286 286 286 286 286
294 294 294 294 294 294 295 294 293 294 293 293 292 292 292 292 292 292 291 290 289 289 288 287 287 286 286 286 287 288 287 286 286 286 286 287 288 290 286 285 285 284 285 285 284 284 285 285 285 286 286 286
295 295 295 294 294 294 295 294 293 293 292 292 292 292 292 291 292 291 291 290 289 288 288 287 287 286 286 287 287 286 286 286 286 286 286 286 285 284 284 284 286 284 284 284 285 285 286 285 286 285 285 285
296 295 295 294 295 294 294 294 293 292 292 292 291 291 291 291 292 291 290 290 289 288 288 287 287 286 286 287 287 286 285 286 286 286 286 285 284 283 284 284 283 284 284 284 285 285 285 285 286 285 284 285
295 294 294 294 294 294 294 294 293 292 291 291 291 291 291 291 291 291 290 290 289 288 288 287 287 286 286 287 286 285 285 285 286 286 286 285 285 283 283 283 283 283 284 284 284 284 283 284 285 284 284 285
295 294 294 294 293 294 294 293 293 292 291 291 291 290 290 291 291 290 290 289 289 288 288 287 287 286 286 286 285 285 285 285 285 285 285 284 283 283 283 283 283 283 283 284 284 283 283 283 283 283 284 285
294 293 292 291 292 292 292 292 290 291 291 291 290 290 290 290 291 290 289 289 288 288 288 287 286 286 285 286 285 285 285 284 285 285 283 284 283 283 284 283 283 283 284 283 283 283 283 283 282 283 285 285
292 292 292 291 289 290 291 291 290 290 291 291 290 290 290 290 290 290 289 288 288 288 287 286 286 285 285 285 285 284 284 284 284 283 283 283 284 284 284 283 282 282 282 282 281 283 282 282 282 282 285 283
292 291 290 290 291 291 292 291 291 290 291 291 291 290 290 290 290 289 289 288 287 287 288 286 285 285 285 285 285 284 285 285 284 283 283 285 284 282 281 282 281 282 281 280 279 279 280 281 282 285 284 282
293 293 292 292 292 292 292 291 291 290 290 291 291 290 289 290 289 289 288 288 287 287 287 286 285 285 285 285 284 284 284 283 285 284 283 284 281 281 281 280 281 282 279 279 278 278 279 279 281 284 281 282
293 293 293 293 292 293 291 291 291 290 290 290 289 289 289 289 289 289 288 288 288 287 287 286 286 285 285 284 285 284 283 284 283 283 283 282 282 281 281 282 283 281 279 278 279 279 278 276 277 281 279 279
294 293 292 290 289 289 289 288 289 288 288 288 288 288 288 289 289 289 288 288 287 287 287 286 286 285 284 284 285 284 284 283 283 282 282 281 282 282 280 278 280 282 280 279 278 277 277 276 277 277 276 277
293 291 289 288 288 288 287 287 287 286 285 288 289 289 287 288 288 288 288 287 287 287 286 285 285 285 284 284 284 284 283 283 283 283 283 282 282 280 280 279 278 281 281 280 281 278 277 276 277 276 276 277
292 292 290 289 288 287 287 286 286 287 288 287 287 289 289 288 288 288 287 287 287 287 286 285 285 284 284 284 284 284 283 283 282 282 282 282 282 280 280 280 279 279 282 281 282 279 277 278 276 275 276 276
292 291 290 290 290 290 289 289 289 290 289 289 288 289 288 288 287 287 287 286 286 286 286 285 284 284 284 284 284 284 282 282 282 282 282 282 281 281 282 281 278 279 279 279 279 279 279 281 280 278 276 274
Wind_Speed
13 14 16 17 17 17 16 16 16 15 15 15 15 15 15 14 14 14 14 13 13 13 12 12 12 12 12 12 12 12 12 13 13 13 13 13 13 13 13 13 13 13 14 14 14 14 14 14 14 12 8 5
12 12 16 17 16 16 16 16 16 15 16 15 15 15 15 14 14 14 13 13 13 13 13 13 13 12 13 12 12 12 12 12 13 12 12 12 13 13 13 13 13 13 13 14 14 14 14 14 13 12 10 6
8 12 12 13 14 15 15 15 15 16 15 15 15 15 15 13 12 11 12 13 13 13 13 13 12 13 13 13 13 13 13 12 12 12 12 13 13 13 13 13 13 14 14 14 14 13 13 12 11 11 7 6
6 9 11 12 13 13 14 15 15 15 13 13 13 13 10 10 8 9 8 11 9 12 12 10 8 12 12 13 13 13 13 13 12 12 12 13 13 13 13 13 13 13 14 13 13 13 12 11 9 6 6 5
6 7 10 10 12 12 13 13 13 14 12 11 10 9 10 9 6 5 6 6 5 9 5 9 11 12 13 13 13 13 13 13 12 13 13 13 13 13 13 12 12 13 13 13 13 12 11 9 6 6 5 6
5 5 7 5 6 6 9 10 11 8 6 7 6 9 8 5 5 6 5 5 7 5 6 8 11 12 14 14 13 13 13 13 13 13 13 13 13 13 12 10 6 5 8 11 11 10 9 6 5 5 5 5
5 5 5 5 5 5 7 6 6 6 6 5 6 6 6 5 5 5 4 5 5 6 9 8 11 12 13 13 13 13 13 13 13 13 13 13 13 12 11 6 5 5 4 4 7 6 5 5 5 5 5 5
6 5 5 6 5 6 6 6 6 5 6 6 6 6 6 6 5 5 5 6 9 8 6 7 9 12 12 12 12 12 8 11 11 12 12 12 11 7 4 4 4 4 4 4 4 4 5 5 4 5 4 4
7 6 6 6 6 5 6 6 6 6 6 5 6 6 6 6 5 4 4 4 5 5 5 5 5 6 6 6 6 7 6 6 5 6 5 4 5 4 4 4 3 3 4 3 3 4 4 4 3 4 4 4
7 7 7 7 6 6 5 6 7 6 6 6 6 5 6 6 6 5 6 4 4 4 5 6 5 6 6 5 5 4 6 5 5 4 4 4 4 3 3 3 3 3 3 4 3 3 3 3 3 4 4 4
7 7 7 7 6 7 7 6 7 7 7 7 6 6 6 7 6 6 6 5 4 5 4 5 5 6 5 6 6 5 6 5 4 5 5 5 4 4 3 3 3 3 3 3 3 3 3 3 4 5 5 5
8 7 7 7 7 7 7 7 7 7 7 7 7 6 6 6 7 7 6 5 6 5 4 5 5 5 5 6 6 5 6 6 5 4 4 4 4 4 3 4 3 3 3 3 3 4 4 4 4 5 5 4
8 7 7 7 7 8 8 8 8 8 7 7 7 6 6 6 7 6 6 6 6 5 5 5 5 5 6 5 6 5 5 5 6 4 4 4 4 3 4 4 4 3 3 4 4 4 3 3 3 4 4 4
9 9 9 9 9 8 8 8 7 6 7 7 8 7 6 7 7 8 8 7 6 7 7 5 4 5 5 6 4 5 6 4 5 6 4 4 3 4 4 5 3 3 4 4 4 4 4 4 4 3 4 4
10 9 10 10 9 8 9 8 7 7 7 7 7 8 7 7 7 7 6 6 6 6 6 6 6 6 5 5 5 5 5 3 5 4 5 5 5 4 5 5 3 4 4 4 4 3 4 4 4 4 4 4
10 11 10 9 9 9 8 8 8 8 7 8 7 7 7 7 7 7 6 6 6 6 7 6 6 6 6 6 4 4 5 5 4 5 4 4 4 4 4 4 4 3 5 4 5 3 4 3 4 4 4 4
11 9 9 9 10 9 8 8 7 8 8 8 7 7 8 7 7 6 8 7 7 6 6 6 6 6 5 5 5 4 4 4 4 5 5 4 3 4 4 4 4 3 3 4 4 4 4 4 4 3 4 4
10 11 9 8 8 8 8 8 8 8 7 7 7 7 8 8 7 7 7 7 6 6 6 6 6 6 6 6 4 4 5 6 5 6 5 4 5 3 4 5 3 4 5 4 2 3 3 3 3 4 4 4
13 10 10 10 9 8 9 8 8 7 7 7 7 7 7 8 7 7 7 7 8 7 6 7 6 6 6 6 4 6 4 5 5 5 6 5 6 4 4 4 3 3 3 3 5 5 4 5 4 3 4 4
13 11 10 9 8 8 8 8 8 8 8 7 7 7 7 8 8 8 8 8 7 7 7 7 7 6 6 5 5 6 4 4 6 5 5 3 5 6 3 3 3 2 3 3 3 3 4 4 3 5 4 5
11 10 10 10 10 10 9 9 8 7 6 7 7 7 8 8 8 8 8 8 7 7 7 7 6 6 6 5 6 6 5 5 5 6 5 3 2 3 5 4 3 2 3 3 3 3 3 3 3 4 5 4
11 10 9 8 7 7 9 8 7 6 7 7 8 7 8 9 8 8 8 8 7 7 6 6 6 5 6 6 6 6 5 6 4 4 5 6 2 3 5 4 4 2 2 1 2 3 3 4 4 3 4 3
9 8 6 5 6 6 7 6 6 6 7 7 7 8 8 8 8 8 8 8 8 8 7 7 6 6 6 6 6 6 6 5 5 4 3 5 5 3 4 5 3 1 0 0 1 2 3 3 3 2 2 2
9 8 9 9 6 6 7 7 7 7 8 7 8 8 8 9 8 8 9 9 8 8 8 7 7 7 6 6 7 7 7 6 6 7 6 5 6 6 4 3 2 1 0 1 3 3 4 2 3 3 2 3
13 13 9 7 11 13 11 11 9 9 9 9 9 9 9 9 9 9 9 8 8 9 8 7 6 7 6 6 7 7 7 6 7 5 5 6 3 4 4 3 3 2 2 3 2 2 4 5 3 2 1 3
14 14 16 16 16 14 13 12 12 13 10 10 8 9 9 9 8 9 9 9 9 8 9 8 8 8 8 7 7 5 4 5 5 5 6 6 5 2 3 2 2 3 1 5 2 2 5 6 4 3 3 3
15 12 10 11 9 11 8 6 6 5 6 6 8 9 9 9 9 9 9 9 9 9 9 9 9 8 7 7 7 7 7 6 6 6 7 5 7 5 3 3 1 4 2 3 2 2 2 3 4 3 4 2
11 10 6 3 3 4 4 5 5 5 5 6 6 9 9 9 10 10 10 10 9 8 8 9 9 7 7 7 6 7 8 8 7 6 5 4 4 8 4 2 1 2 3 3 3 3 2 0 1 1 1 5
11 9 8 6 7 6 6 5 5 6 6 9 9 7 9 12 10 11 10 9 10 9 9 8 7 8 7 7 7 7 7 8 9 7 6 6 6 5 8 4 2 1 2 1 0 5 3 1 1 2 1 3
12 13 13 12 11 10 8 8 9 12 16 13 14 16 8 6 10 10 9 10 10 9 8 9 8 7 8 7 7 7 7 5 5 6 7 7 6 5 2 7 5 2 0 2 3 2 1 2 2 3 2 1
12 12 12 15 16 16 16 16 13 12 9 11 9 7 10 10 8 10 11 10 10 9 9 8 8 9 8 8 7 5 6 7 8 7 6 5 5 5 5 7 5 7 5 2 2 2 3 5 3 5 5 3
Wind_Direction
180 180 178 176 174 171 168 166 164 161 159 156 153 151 148 144 141 137 133 129 126 122 120 118 114 110 108 107 103 100 98 95 93 91 89 86 84 81 77 73 69 64 60 55 50 47 44 43 42 43 46 42
174 174 176 174 170 168 167 166 164 161 159 156 153 149 147 143 141 138 134 128 125 123 120 117 115 111 110 107 104 101 97 93 89 87 85 82 80 78 74 72 70 66 62 57 52 46 41 37 35 34 37 39
176 172 173 170 168 168 167 166 163 160 157 154 152 147 143 142 138 135 130 126 121 117 118 120 116 114 112 110 106 103 100 94 90 87 83 79 76 72 70 68 66 64 61 58 54 49 44 38 32 31 31 30
171 172 173 171 169 169 168 165 162 159 155 151 144 139 124 114 111 114 117 118 116 119 116 105 104 112 112 111 109 105 101 96 91 87 84 81 77 72 68 64 61 59 57 55 50 47 43 38 33 31 26 25
170 173 170 171 168 167 167 163 160 156 145 138 131 122 122 116 114 117 116 112 114 109 111 113 109 112 113 109 107 103 100 97 93 89 85 82 79 74 67 59 52 50 51 49 45 43 42 38 34 26 25 22
169 170 163 166 169 164 165 160 153 142 137 132 130 132 128 127 130 130 129 128 123 122 116 116 116 115 113 111 107 106 102 99 92 88 85 82 77 73 66 62 53 40 40 43 44 41 40 37 35 28 25 23
171 164 155 164 165 163 156 152 138 141 137 134 139 138 137 137 136 138 136 133 134 131 124 116 114 113 109 105 102 101 97 92 87 84 80 76 73 67 60 54 51 50 46 38 38 38 37 39 33 31 31 27
172 164 160 163 167 164 155 146 148 146 142 143 145 147 145 142 144 139 141 140 129 119 110 107 101 102 99 95 89 84 75 76 80 79 78 79 73 65 65 61 52 50 44 45 39 38 37 34 30 33 32 28
178 168 160 169 171 165 163 155 153 153 150 151 149 150 147 147 141 136 127 120 114 115 118 111 105 96 96 97 94 96 94 89 83 81 82 74 78 79 87 83 68 72 62 49 47 46 36 38 35 34 30 25
173 159 173 176 176 168 176 166 164 160 160 157 157 155 151 141 132 133 129 130 130 129 126 119 116 112 112 110 116 113 113 111 115 108 115 116 110 110 110 103 103 82 81 66 52 47 37 35 32 31 29 27
172 181 178 172 173 170 182 177 167 170 167 168 162 161 157 145 145 141 142 140 143 142 137 133 135 135 133 131 132 139 127 129 133 133 131 127 124 129 114 101 94 86 79 74 65 47 40 28 26 23 20 19
182 179 175 179 176 184 181 173 180 173 171 164 168 166 162 146 148 153 153 159 156 160 146 151 150 143 137 135 139 143 135 131 135 133 131 126 120 116 108 99 85 78 68 61 57 52 34 24 21 18 15 12
183 178 179 179 182 188 184 184 181 174 165 168 170 169 162 151 150 154 161 167 166 154 158 155 154 151 146 139 144 137 135 135 136 128 129 118 114 106 96 84 69 65 57 49 46 46 33 26 18 15 13 10
183 183 183 188 190 187 184 188 177 168 173 171 166 173 170 164 160 168 172 169 165 162 164 163 156 147 152 148 152 139 138 152 134 135 122 110 98 89 77 65 52 59 54 39 34 30 24 17 11 7 10 4
191 181 191 189 187 185 189 180 171 176 173 170 176 173 168 167 168 165 168 167 168 166 162 162 158 158 157 151 164 152 144 148 138 130 119 117 107 92 78 67 45 57 54 39 29 17 19 3 2 7 7 2
190 191 191 187 185 190 186 173 178 177 175 177 177 170 169 169 171 166 168 168 171 170 166 166 163 162 159 168 167 153 145 136 129 117 111 100 90 84 80 64 48 41 54 37 21 5 11 360 4 5 3 1
193 189 187 185 191 187 180 179 176 180 182 176 174 171 171 172 172 172 168 174 174 173 171 164 160 164 171 169 162 152 144 129 120 106 99 85 86 72 65 64 41 33 49 39 5 1 358 359 4 1 2 1
189 191 189 188 187 184 178 182 182 187 181 173 170 172 173 171 176 173 169 166 174 170 168 169 169 166 170 172 164 147 143 136 135 123 112 115 97 81 76 74 45 40 31 12 344 359 343 357 356 357 2 3
193 187 186 185 185 186 183 182 187 184 176 174 174 169 174 175 177 175 172 172 168 173 171 170 171 176 177 166 158 149 153 137 125 123 127 127 105 92 78 76 62 58 47 12 359 345 345 344 348 4 5 358
189 186 185 184 184 182 183 182 188 184 181 176 168 172 174 179 178 175 175 171 168 170 177 176 176 179 168 166 152 148 143 131 134 130 121 126 132 111 98 97 55 39 37 9 351 332 335 340 353 2 1 4
186 180 183 184 185 184 181 186 188 181 172 170 173 176 177 180 180 177 175 172 172 169 175 177 178 176 169 161 153 150 150 141 144 137 128 107 114 122 126 104 92 36 23 1 337 321 333 357 4 6 4 358
182 181 178 181 179 179 185 188 184 176 169 180 181 176 183 179 179 176 174 172 172 172 176 175 174 170 168 162 153 149 149 150 139 135 131 120 88 111 110 97 83 41 0 342 333 335 340 3 20 5 8 357
171 164 165 156 161 174 183 184 182 172 182 185 179 187 180 175 178 174 174 172 171 170 173 173 174 173 174 163 157 151 146 144 142 137 133 129 115 86 95 115 123 123 241 294 331 348 342 11 8 17 18 49
167 165 171 172 163 179 194 187 182 188 191 179 189 186 176 178 177 175 174 174 174 172 173 174 177 176 174 170 160 158 156 161 160 155 136 139 129 119 92 67 94 58 93 114 68 22 352 33 24 12 74 72
173 174 173 182 191 195 189 190 185 188 191 189 190 180 180 179 180 175 173 175 172 178 174 177 173 170 179 173 169 169 173 164 158 158 150 138 123 123 94 43 16 33 70 51 18 21 16 354 20 32 81 110
180 184 185 182 190 190 188 182 184 193 190 192 183 181 181 182 178 176 178 177 178 175 176 173 177 181 180 175 173 168 151 155 158 150 145 145 83 37 121 86 355 335 92 28 91 21 335 346 359 28 71 115
188 188 188 188 187 188 181 191 187 175 175 165 178 186 184 180 179 178 181 179 181 178 180 181 177 185 175 175 163 154 162 165 161 163 160 165 136 107 55 97 17 6 51 135 124 142 84 1 10 333 8 337
185 177 165 139 107 129 123 159 142 134 142 169 169 192 186 187 185 183 182 182 180 179 183 180 183 171 175 176 176 170 164 169 169 163 163 148 142 132 109 75 17 6 10 116 116 20 62 176 95 326 347 335
163 141 125 110 89 92 86 81 124 137 175 189 193 182 191 197 183 184 184 178 183 182 182 181 176 175 177 174 180 175 172 176 178 174 168 162 150 153 141 148 135 340 15 357 265 146 104 43 19 219 257 352
163 169 162 156 154 161 171 175 175 189 195 189 192 199 177 171 188 183 184 183 182 185 176 178 178 174 171 179 180 184 180 165 153 167 168 184 165 142 139 135 128 109 331 1 4 59 127 165 174 172 220 103
168 170 176 180 182 181 182 189 204 202 187 186 190 166 180 186 180 188 183 186 185 183 179 175 175 176 179 179 179 172 161 175 183 175 170 159 156 162 139 128 128 155 176 53 10 31 60 78 87 125 124 199